User: anonymous   Login
Location: Ffald-y-Brenin
(52.0833°N, 4.0000°W)
Time: 07:03:06
(UTC+00:00)
Language:

STARLINK-1133 - Orbit

View from above orbital plane
View from above orbital plane
View from above satellite
View from above satellite

Ground track
Ground track

The orbit data is extracted from the following two-line orbital elements,

1 45064C 20006W   20157.00881358  .00007090  00000-0  48554-3 0  1576
2 45064  53.0008 350.4062 0001362  91.6491  64.5096 15.05577183    12
Epoch (UTC): 05 June 2020 00:12:41
Eccentricity: 0.0001362
inclination: 53.0008°
perigee height: 549 km
apogee height: 550 km
right ascension of ascending node: 350.4062°
argument of perigee: 91.6491°
revolutions per day: 15.05577183
mean anomaly at epoch: 64.5096°
orbit number at epoch: 1

The dashed part of the orbit path shows where the satellite is in the earth's shadow,  

DLR